Weather History for KCRP - January, 2012

Change the Weather History Date:

Thursday, January 12, 2012

  Actual Average Record
Temperature  
Mean Temperature 51 °F 57 °F  
Max Temperature 64 °F 67 °F 82 °F (1972)
Min Temperature 38 °F 47 °F 14 °F (1962)
Degree Days  
Heating Degree Days 14 9  
Month to date heating degree days 68 108  
Since 1 July heating degree days 381 459  
Cooling Degree Days 0 1  
Month to date cooling degree days 8 12  
Year to date cooling degree days 8 12  
Growing Degree Days 1 (Base 50)    
Moisture  
Dew Point 22 °F    
Average Humidity 43    
Maximum Humidity 71    
Minimum Humidity 15    
Precipitation  
Precipitation 0.00 in 0.05 in 1.75 in (1943)
Month to date precipitation 0.01 0.62  
Year to date precipitation 0.01 0.62  
Snow  
Snow 0.00 in - - ()
Month to date snowfall 0.0  
Since 1 July snowfall 0.0  
Snow Depth 0.00 in    
Sea Level Pressure  
Sea Level Pressure 30.18 in    
Wind  
Wind Speed 18 mph (North)    
Max Wind Speed 35 mph    
Max Gust Speed 51 mph    
Visibility 10 miles    
Events      
T = Trace of Precipitation, MM = Missing Value Source: NWS Daily Summary

Daily Weather History Graph

Daily Weather History Graph

Search for Another Location

Airport or City:

Trip Planner

Search our weather history database for the weather conditions in past years. The results will help you decide how hot, cold, wet, or windy it might be!

Date:

Astronomy

Jan. 12, 2012 Rise Set
Actual Time 7:22 AM CST 5:54 PM CST
Civil Twilight 6:57 AM CST 6:19 PM CST
Nautical Twilight 6:28 AM CST 6:48 PM CST
Astronomical Twilight 5:59 AM CST 7:16 PM CST
Moon 9:36 PM CST (1/12) 9:28 AM CST (1/12)
Length of Visible Light 11h 22m
Length of Day
10h 31m
Waning Gibbous, 87% of the Moon is Illuminated
Jan 12
Waning Gibbous
Jan 16
Last Quarter
Jan 23
New
Jan 30
First Quarter
Feb 7
Full

Hourly Weather History & Observations

Time (CST) Temp. Windchill Dew Point Humidity Pressure Visibility Wind Dir Wind Speed Gust Speed Precip Events Conditions
12:51 AM 63.0 °F - 50.0 °F 63% 29.89 in 10.0 mi NNW 15.0 mph - N/A   Scattered Clouds
1:51 AM 59.0 °F - 39.9 °F 49% 29.93 in 10.0 mi NNE 13.8 mph - N/A   Partly Cloudy
2:51 AM 57.0 °F - 39.0 °F 51% 29.95 in 10.0 mi NNE 20.7 mph - N/A   Clear
3:51 AM 55.0 °F - 37.9 °F 53% 29.97 in 10.0 mi NNE 25.3 mph 29.9 mph N/A   Clear
4:51 AM 52.0 °F - 37.9 °F 59% 30.01 in 10.0 mi North 23.0 mph - N/A   Clear
5:51 AM 50.0 °F - 36.0 °F 59% 30.08 in 10.0 mi North 25.3 mph 31.1 mph N/A   Clear
6:51 AM 48.9 °F - 35.1 °F 59% 30.13 in 10.0 mi North 20.7 mph 31.1 mph N/A   Clear
7:51 AM 48.0 °F - 34.0 °F 58% 30.17 in 10.0 mi North 25.3 mph 34.5 mph N/A   Partly Cloudy
8:51 AM 46.0 °F 36.9 °F 26.1 °F 46% 30.22 in 10.0 mi North 28.8 mph 38.0 mph N/A   Partly Cloudy
9:51 AM 46.9 °F - 24.1 °F 41% 30.27 in 10.0 mi North 25.3 mph 32.2 mph N/A   Clear
10:51 AM 51.1 °F - 18.0 °F 27% 30.28 in 10.0 mi North 26.5 mph 36.8 mph N/A   Clear
11:51 AM 51.1 °F - 18.0 °F 27% 30.27 in 10.0 mi North 19.6 mph 29.9 mph N/A   Clear
12:51 PM 57.0 °F - 16.0 °F 20% 30.26 in 10.0 mi North 20.7 mph 28.8 mph N/A   Scattered Clouds
1:51 PM 55.0 °F - 15.1 °F 21% 30.23 in 10.0 mi NNW 24.2 mph 31.1 mph N/A   Scattered Clouds
2:51 PM 54.0 °F - 15.1 °F 22% 30.23 in 10.0 mi NNW 24.2 mph 29.9 mph N/A   Partly Cloudy
3:51 PM 55.0 °F - 8.1 °F 15% 30.25 in 10.0 mi NNW 20.7 mph 31.1 mph N/A   Partly Cloudy
4:51 PM 54.0 °F - 8.1 °F 16% 30.23 in 10.0 mi North 16.1 mph - N/A   Scattered Clouds
5:51 PM 51.1 °F - 10.0 °F 19% 30.25 in 10.0 mi North 13.8 mph - N/A   Partly Cloudy
6:51 PM 48.0 °F - 7.0 °F 19% 30.27 in 10.0 mi North 16.1 mph - N/A   Partly Cloudy
7:51 PM 45.0 °F 40.6 °F 9.0 °F 23% 30.29 in 10.0 mi North 8.1 mph - N/A   Partly Cloudy
8:51 PM 43.0 °F 38.8 °F 10.9 °F 27% 30.29 in 10.0 mi North 6.9 mph - N/A   Partly Cloudy
9:51 PM 42.1 °F 38.4 °F 10.9 °F 28% 30.29 in 10.0 mi North 5.8 mph - N/A   Partly Cloudy
10:51 PM 39.9 °F 35.8 °F 10.9 °F 31% 30.31 in 10.0 mi North 5.8 mph - N/A   Clear
11:51 PM 39.0 °F 33.4 °F 12.0 °F 33% 30.31 in 10.0 mi North 8.1 mph - N/A   Clear